DLH39X EDDF-LPPT

Flight info

Callsign DLH39X
Flight time N/A
Altitude 33000
Route SOBRA2L/18 SOBRA Y180 DIK UN857 TOLVU DCT RAPOR DCT GIMER DCT ESTOC UT300 PON UN872 ERIGA UZ218 FUJTI DCT ATLEN DCT ABUPI DCT XAMAX
Aircraft A21N/M-SDE2E3FGIJ1LORWXYZ/HB1

Departure

Time 2026-05-07 09:00
Airport Frankfurt Main Airport (EDDF)

Arrival

Time N/A
Airport Lisbon Humberto Delgado Airport (LPPT)
Time Latitude Longitude Altitude Speed Heading
2026-05-07 08:21 50.03665 8.52432 354 ft 0 kts 339°
2026-05-07 08:49 50.03653 8.52440 354 ft 4 kts 338°
2026-05-07 08:49 50.03628 8.52458 357 ft 4 kts 327°
2026-05-07 08:49 50.03608 8.52484 357 ft 4 kts 305°
2026-05-07 08:50 50.03600 8.52519 357 ft 4 kts 260°
2026-05-07 08:50 50.03602 8.52533 357 ft 0 kts 254°
2026-05-07 08:55 50.03602 8.52531 346 ft 1 kts 254°
2026-05-07 08:55 50.03597 8.52504 351 ft 3 kts 253°
2026-05-07 08:55 50.03590 8.52469 353 ft 4 kts 253°
2026-05-07 08:56 50.03579 8.52428 351 ft 5 kts 243°
2026-05-07 08:56 50.03567 8.52377 347 ft 6 kts 252°
2026-05-07 08:56 50.03549 8.52314 342 ft 7 kts 222°
2026-05-07 08:56 50.03498 8.52307 344 ft 8 kts 176°
2026-05-07 08:57 50.03440 8.52304 337 ft 9 kts 186°
2026-05-07 08:57 50.03397 8.52352 336 ft 10 kts 88°
2026-05-07 08:57 50.03399 8.52440 338 ft 0 kts 88°
2026-05-07 08:58 50.03399 8.52461 340 ft 5 kts 88°
2026-05-07 08:58 50.03400 8.52528 341 ft 7 kts 91°
2026-05-07 08:59 50.03369 8.52590 336 ft 9 kts 172°
2026-05-07 08:59 50.03361 8.52591 337 ft 0 kts 176°
2026-05-07 09:00 50.03175 8.52595 341 ft 62 kts 180°
2026-05-07 09:00 50.02487 8.52600 341 ft 140 kts 180°
2026-05-07 09:00 50.01265 8.52601 578 ft 194 kts 182°
2026-05-07 09:00 49.99900 8.52628 1780 ft 199 kts 180°
2026-05-07 09:01 49.98477 8.52717 2386 ft 211 kts 178°
2026-05-07 09:01 49.96960 8.52850 2843 ft 229 kts 178°
2026-05-07 09:01 49.95328 8.52953 3045 ft 237 kts 179°
2026-05-07 09:01 49.93696 8.53025 3091 ft 241 kts 179°
2026-05-07 09:02 49.91966 8.53120 3582 ft 249 kts 178°
2026-05-07 09:02 49.90213 8.53259 4383 ft 252 kts 177°
2026-05-07 09:02 49.88475 8.53407 5287 ft 252 kts 178°
2026-05-07 09:02 49.86698 8.53382 5879 ft 262 kts 191°
2026-05-07 09:03 49.84912 8.52445 6335 ft 275 kts 204°
2026-05-07 09:03 49.83135 8.51284 7053 ft 280 kts 205°
2026-05-07 09:03 49.81533 8.49604 7709 ft 279 kts 227°
2026-05-07 09:03 49.80343 8.47296 8563 ft 274 kts 246°
2026-05-07 09:04 49.79877 8.44478 9337 ft 270 kts 270°
2026-05-07 09:04 49.80057 8.41602 10147 ft 268 kts 279°
2026-05-07 09:04 49.80385 8.38741 10760 ft 275 kts 280°
2026-05-07 09:04 49.80699 8.35730 11055 ft 293 kts 279°
2026-05-07 09:05 49.81017 8.32515 11315 ft 311 kts 279°
2026-05-07 09:05 49.81344 8.29124 11651 ft 325 kts 279°
2026-05-07 09:05 49.81675 8.25627 12238 ft 331 kts 278°
2026-05-07 09:05 49.82009 8.22079 12876 ft 335 kts 278°
2026-05-07 09:06 49.82342 8.18526 13510 ft 340 kts 278°
2026-05-07 09:06 49.82682 8.14838 14138 ft 344 kts 279°
2026-05-07 09:06 49.83020 8.11202 14721 ft 347 kts 279°
2026-05-07 09:06 49.83363 8.07487 15331 ft 351 kts 279°
2026-05-07 09:07 49.83709 8.03729 15940 ft 354 kts 279°
2026-05-07 09:07 49.84055 7.99933 16562 ft 357 kts 279°
2026-05-07 09:07 49.84402 7.96119 17178 ft 360 kts 279°
2026-05-07 09:07 49.84753 7.92266 17786 ft 363 kts 279°
2026-05-07 09:08 49.85098 7.88376 18352 ft 366 kts 279°
2026-05-07 09:08 49.85448 7.84450 18861 ft 369 kts 279°
2026-05-07 09:08 49.85804 7.80508 19357 ft 372 kts 279°
2026-05-07 09:08 49.86235 7.76543 19886 ft 373 kts 283°
2026-05-07 09:09 49.86843 7.72635 20403 ft 375 kts 284°
2026-05-07 09:09 49.87471 7.68685 20900 ft 378 kts 284°
2026-05-07 09:09 49.88051 7.64974 21365 ft 380 kts 284°
2026-05-07 09:09 49.88504 7.60978 21822 ft 384 kts 272°
2026-05-07 09:10 49.88301 7.56839 22295 ft 387 kts 262°
2026-05-07 09:10 49.87801 7.52676 22785 ft 390 kts 259°
2026-05-07 09:10 49.87282 7.48591 23246 ft 392 kts 260°
2026-05-07 09:10 49.86773 7.44422 23688 ft 395 kts 260°
2026-05-07 09:11 49.86280 7.40234 24073 ft 398 kts 261°
2026-05-07 09:11 49.85783 7.35986 24459 ft 400 kts 261°
2026-05-07 09:11 49.85287 7.31737 24832 ft 402 kts 261°
2026-05-07 09:11 49.84792 7.27457 25210 ft 404 kts 261°
2026-05-07 09:12 49.84467 7.24622 25438 ft 406 kts 261°
2026-05-07 09:12 49.83966 7.20299 25767 ft 409 kts 260°
2026-05-07 09:12 49.83460 7.15942 26107 ft 412 kts 260°
2026-05-07 09:12 49.82945 7.11561 26463 ft 414 kts 260°
2026-05-07 09:13 49.82429 7.07159 26809 ft 416 kts 260°
2026-05-07 09:13 49.81908 7.02737 27149 ft 419 kts 260°
2026-05-07 09:13 49.81385 6.98288 27485 ft 421 kts 260°
2026-05-07 09:13 49.80861 6.93813 27833 ft 423 kts 260°
2026-05-07 09:14 49.80335 6.89332 28177 ft 425 kts 260°
2026-05-07 09:14 49.79797 6.84813 28489 ft 427 kts 260°
2026-05-07 09:14 49.79260 6.80283 28803 ft 429 kts 260°
2026-05-07 09:14 49.78717 6.75730 29078 ft 432 kts 260°
2026-05-07 09:15 49.78169 6.71139 29335 ft 435 kts 260°
2026-05-07 09:15 49.77618 6.66538 29627 ft 437 kts 260°
2026-05-07 09:15 49.77058 6.61889 29935 ft 439 kts 260°
2026-05-07 09:15 49.76495 6.57252 30259 ft 439 kts 260°
2026-05-07 09:16 49.75932 6.52617 30594 ft 438 kts 260°
2026-05-07 09:16 49.75370 6.48047 30916 ft 438 kts 260°
2026-05-07 09:16 49.74804 6.43430 31214 ft 437 kts 260°
2026-05-07 09:16 49.74234 6.38828 31492 ft 436 kts 259°
2026-05-07 09:17 49.73659 6.34223 31778 ft 436 kts 259°
2026-05-07 09:17 49.73085 6.29631 32074 ft 435 kts 260°
2026-05-07 09:17 49.72509 6.25043 32334 ft 435 kts 260°
2026-05-07 09:17 49.71937 6.20459 32597 ft 434 kts 260°
2026-05-07 09:18 49.71368 6.15873 32854 ft 434 kts 260°
2026-05-07 09:18 49.70797 6.11293 33039 ft 434 kts 259°
2026-05-07 09:18 49.69638 6.02185 33048 ft 434 kts 259°
2026-05-07 09:19 49.68481 5.93028 33037 ft 434 kts 260°
2026-05-07 09:19 49.67331 5.83888 33031 ft 434 kts 259°
2026-05-07 09:20 49.66157 5.74761 33040 ft 433 kts 259°
2026-05-07 09:20 49.64982 5.65646 33041 ft 433 kts 259°
2026-05-07 09:21 49.63589 5.56600 33049 ft 433 kts 256°
2026-05-07 09:21 49.62106 5.47601 33050 ft 433 kts 257°
2026-05-07 09:22 49.60632 5.38594 33045 ft 433 kts 257°
2026-05-07 09:22 49.59157 5.29607 33051 ft 432 kts 257°
2026-05-07 09:23 49.57687 5.20697 33050 ft 432 kts 257°
2026-05-07 09:23 49.56190 5.11667 33051 ft 432 kts 257°
2026-05-07 09:24 49.54707 5.02755 33051 ft 432 kts 256°
2026-05-07 09:24 49.53206 4.93803 33051 ft 432 kts 256°
2026-05-07 09:25 49.51702 4.84873 33052 ft 431 kts 256°
2026-05-07 09:25 49.50186 4.75954 33056 ft 431 kts 256°
2026-05-07 09:26 49.48663 4.67050 33054 ft 431 kts 256°
2026-05-07 09:26 49.47133 4.58145 33060 ft 431 kts 256°
2026-05-07 09:27 49.45609 4.49243 33060 ft 431 kts 256°
2026-05-07 09:28 49.43302 4.35936 33054 ft 429 kts 256°
2026-05-07 09:28 49.41767 4.27096 33061 ft 429 kts 256°
2026-05-07 09:29 49.40215 4.18245 33061 ft 429 kts 256°
2026-05-07 09:29 49.38666 4.09412 33062 ft 429 kts 255°
2026-05-07 09:30 49.37116 4.00647 33066 ft 429 kts 255°
2026-05-07 09:30 49.35726 3.91746 33061 ft 428 kts 258°
2026-05-07 09:31 49.34455 3.82817 33064 ft 428 kts 258°
2026-05-07 09:31 49.33181 3.73900 33063 ft 428 kts 258°
2026-05-07 09:32 49.31893 3.64965 33063 ft 429 kts 258°
2026-05-07 09:32 49.30591 3.56056 33064 ft 429 kts 258°
2026-05-07 09:33 49.29278 3.47175 33054 ft 427 kts 257°
2026-05-07 09:33 49.27969 3.38301 33057 ft 427 kts 257°
2026-05-07 09:34 49.26655 3.29435 33067 ft 427 kts 258°
2026-05-07 09:34 49.25362 3.20627 33058 ft 427 kts 257°
2026-05-07 09:35 49.24042 3.11786 33059 ft 427 kts 257°
2026-05-07 09:35 49.22712 3.02939 33059 ft 426 kts 257°
2026-05-07 09:36 49.21378 2.94114 33068 ft 426 kts 257°
2026-05-07 09:36 49.20038 2.85282 33075 ft 426 kts 257°
2026-05-07 09:37 49.18689 2.76457 33080 ft 426 kts 257°
2026-05-07 09:37 49.17331 2.67650 33069 ft 426 kts 257°
2026-05-07 09:38 49.15970 2.58854 33074 ft 425 kts 257°
2026-05-07 09:38 49.14617 2.50124 33078 ft 425 kts 257°
2026-05-07 09:39 49.13244 2.41341 33082 ft 425 kts 257°
2026-05-07 09:39 49.12284 2.32445 33084 ft 425 kts 262°
2026-05-07 09:40 49.11467 2.23508 33078 ft 425 kts 262°
2026-05-07 09:40 49.10640 2.14595 33091 ft 423 kts 262°
2026-05-07 09:41 49.09763 2.05726 33084 ft 423 kts 259°
2026-05-07 09:41 49.07804 1.97272 33094 ft 424 kts 245°
2026-05-07 09:42 49.05304 1.89213 33076 ft 425 kts 245°
2026-05-07 09:42 49.02833 1.81101 33071 ft 425 kts 246°
2026-05-07 09:43 49.00360 1.72948 33144 ft 423 kts 245°
2026-05-07 09:43 48.97900 1.64832 33106 ft 423 kts 245°
2026-05-07 09:44 48.95421 1.56698 33084 ft 423 kts 245°
2026-05-07 09:44 48.92944 1.48587 33079 ft 423 kts 245°
2026-05-07 09:45 48.90454 1.40466 33075 ft 423 kts 245°
2026-05-07 09:45 48.87951 1.32374 33079 ft 423 kts 245°
2026-05-07 09:46 48.85456 1.24268 33080 ft 423 kts 245°
2026-05-07 09:46 48.84215 1.20256 33084 ft 423 kts 245°
2026-05-07 09:47 48.81738 1.12258 33080 ft 423 kts 245°
2026-05-07 09:47 48.79246 1.04246 33088 ft 423 kts 245°
2026-05-07 09:48 48.76731 0.96176 33083 ft 423 kts 245°
2026-05-07 09:48 48.74140 0.88167 33079 ft 424 kts 240°
2026-05-07 09:49 48.71076 0.80524 33080 ft 425 kts 239°
2026-05-07 09:49 48.67977 0.72910 33087 ft 425 kts 239°
2026-05-07 09:50 48.64887 0.65296 33078 ft 425 kts 239°
2026-05-07 09:50 48.61794 0.57691 33076 ft 424 kts 239°
2026-05-07 09:51 48.58694 0.50108 33084 ft 425 kts 239°
2026-05-07 09:51 48.55612 0.42578 33088 ft 425 kts 238°
2026-05-07 09:52 48.52496 0.35007 33091 ft 424 kts 238°
2026-05-07 09:52 48.49411 0.27518 33087 ft 424 kts 238°
2026-05-07 09:53 48.46284 0.19975 33080 ft 424 kts 238°
2026-05-07 09:53 48.43166 0.12442 33079 ft 423 kts 238°
2026-05-07 09:54 48.40047 0.04920 33084 ft 423 kts 238°
2026-05-07 09:54 48.36928 -0.02580 33082 ft 423 kts 238°
2026-05-07 09:55 48.33512 -0.09796 33081 ft 423 kts 233°
2026-05-07 09:55 48.29990 -0.16883 33073 ft 423 kts 233°
2026-05-07 09:56 48.26496 -0.23912 33076 ft 424 kts 233°
2026-05-07 09:56 48.22939 -0.30966 33072 ft 424 kts 233°
2026-05-07 09:57 48.19372 -0.37933 33068 ft 424 kts 233°
2026-05-07 09:57 48.15783 -0.44938 33067 ft 424 kts 233°
2026-05-07 09:58 48.12185 -0.51918 33058 ft 424 kts 232°
2026-05-07 09:58 48.08578 -0.58894 33054 ft 424 kts 233°
2026-05-07 09:59 48.04991 -0.65899 33050 ft 424 kts 233°
2026-05-07 09:59 48.01427 -0.72823 33050 ft 424 kts 232°
2026-05-07 10:00 47.97809 -0.79771 33047 ft 424 kts 232°
2026-05-07 10:00 47.94181 -0.86722 33061 ft 424 kts 232°
2026-05-07 10:01 47.90575 -0.93646 33060 ft 423 kts 232°
2026-05-07 10:01 47.86958 -1.00573 33066 ft 423 kts 232°
2026-05-07 10:02 47.83338 -1.07474 33064 ft 423 kts 232°
2026-05-07 10:02 47.79737 -1.14324 33060 ft 423 kts 232°
2026-05-07 10:03 47.76301 -1.20863 33054 ft 424 kts 232°
2026-05-07 10:03 47.72672 -1.27776 33060 ft 424 kts 232°
2026-05-07 10:04 47.69024 -1.34673 33044 ft 425 kts 232°
2026-05-07 10:04 47.65374 -1.41559 33044 ft 425 kts 232°
2026-05-07 10:05 47.61710 -1.48429 33040 ft 425 kts 231°
2026-05-07 10:05 47.57894 -1.55115 33028 ft 425 kts 228°
2026-05-07 10:06 47.53953 -1.61618 33031 ft 425 kts 228°
2026-05-07 10:06 47.50038 -1.68067 33034 ft 424 kts 228°
2026-05-07 10:07 47.46100 -1.74562 33026 ft 424 kts 228°
2026-05-07 10:07 47.42155 -1.81039 33026 ft 424 kts 228°
2026-05-07 10:08 47.38224 -1.87461 33027 ft 424 kts 228°
2026-05-07 10:08 47.34055 -1.93585 33024 ft 423 kts 217°
2026-05-07 10:09 47.29074 -1.98193 33027 ft 423 kts 211°
2026-05-07 10:09 47.24020 -2.02643 33025 ft 423 kts 211°
2026-05-07 10:10 47.18984 -2.07130 33029 ft 423 kts 211°
2026-05-07 10:10 47.14800 -2.10862 33024 ft 422 kts 211°
2026-05-07 10:11 47.09784 -2.15319 33032 ft 422 kts 211°
2026-05-07 10:11 47.04758 -2.19769 33029 ft 422 kts 211°
2026-05-07 10:12 46.99739 -2.24213 33031 ft 422 kts 211°
2026-05-07 10:12 46.94710 -2.28648 33027 ft 422 kts 211°
2026-05-07 10:13 46.89701 -2.33061 33032 ft 420 kts 211°
2026-05-07 10:13 46.84690 -2.37468 33033 ft 420 kts 211°
2026-05-07 10:14 46.79689 -2.41863 33034 ft 420 kts 211°
2026-05-07 10:14 46.74678 -2.46251 33042 ft 419 kts 211°
2026-05-07 10:15 46.69673 -2.50627 33036 ft 419 kts 211°
2026-05-07 10:15 46.64668 -2.54994 33035 ft 419 kts 211°
2026-05-07 10:16 46.59726 -2.59298 33038 ft 419 kts 211°
2026-05-07 10:16 46.54719 -2.63647 33037 ft 419 kts 211°
2026-05-07 10:17 46.49713 -2.67987 33040 ft 418 kts 211°
2026-05-07 10:17 46.44721 -2.72305 33039 ft 418 kts 211°
2026-05-07 10:18 46.39718 -2.76608 33038 ft 418 kts 211°
2026-05-07 10:18 46.34713 -2.80906 33043 ft 418 kts 211°
2026-05-07 10:19 46.29711 -2.85208 33036 ft 417 kts 211°
2026-05-07 10:19 46.24947 -2.89875 33038 ft 417 kts 219°
2026-05-07 10:20 46.20500 -2.95326 33034 ft 417 kts 220°
2026-05-07 10:20 46.16112 -3.00718 33032 ft 417 kts 220°
2026-05-07 10:21 46.11678 -3.06123 33031 ft 416 kts 220°
2026-05-07 10:21 46.07258 -3.11494 33034 ft 416 kts 220°
2026-05-07 10:22 46.02825 -3.16865 33034 ft 416 kts 220°
2026-05-07 10:22 45.98397 -3.22215 33036 ft 416 kts 219°
2026-05-07 10:23 45.93963 -3.27573 33032 ft 416 kts 219°
2026-05-07 10:23 45.89528 -3.32917 33027 ft 416 kts 219°
2026-05-07 10:24 45.85084 -3.38260 33028 ft 416 kts 219°
2026-05-07 10:24 45.80678 -3.43547 33027 ft 416 kts 219°
2026-05-07 10:25 45.76232 -3.48866 33027 ft 416 kts 219°
2026-05-07 10:25 45.71783 -3.54179 33027 ft 416 kts 219°
2026-05-07 10:26 45.67334 -3.59480 33023 ft 417 kts 219°
2026-05-07 10:26 45.62874 -3.64783 33017 ft 417 kts 219°
2026-05-07 10:27 45.58418 -3.70071 33017 ft 417 kts 219°
2026-05-07 10:27 45.53957 -3.75352 33014 ft 417 kts 219°
2026-05-07 10:28 45.49500 -3.80618 33011 ft 416 kts 219°
2026-05-07 10:28 45.45039 -3.85878 33010 ft 416 kts 219°
2026-05-07 10:29 45.40581 -3.91121 33022 ft 416 kts 218°
2026-05-07 10:29 45.36138 -3.96339 33010 ft 417 kts 218°
2026-05-07 10:30 45.29455 -4.04165 33003 ft 417 kts 218°
2026-05-07 10:30 45.24973 -4.09396 33008 ft 417 kts 218°
2026-05-07 10:31 45.20491 -4.14622 33007 ft 417 kts 218°
2026-05-07 10:31 45.16005 -4.19836 33003 ft 417 kts 218°
2026-05-07 10:32 45.11519 -4.25044 32999 ft 417 kts 218°
2026-05-07 10:32 45.07023 -4.30251 32996 ft 417 kts 218°
2026-05-07 10:33 45.02564 -4.35403 32994 ft 417 kts 218°
2026-05-07 10:33 44.98103 -4.40556 32994 ft 417 kts 218°
2026-05-07 10:34 44.93609 -4.45725 32992 ft 417 kts 218°
2026-05-07 10:34 44.89118 -4.50881 32984 ft 415 kts 218°
2026-05-07 10:35 44.84637 -4.55984 32987 ft 414 kts 218°
2026-05-07 10:35 44.80155 -4.61121 32991 ft 417 kts 218°
2026-05-07 10:36 44.75650 -4.66277 32989 ft 417 kts 218°
2026-05-07 10:36 44.71136 -4.71420 32981 ft 417 kts 218°
2026-05-07 10:37 44.66627 -4.76544 32979 ft 417 kts 218°
2026-05-07 10:37 44.62102 -4.81677 32979 ft 418 kts 218°
2026-05-07 10:38 44.57578 -4.86795 32975 ft 418 kts 218°
2026-05-07 10:38 44.53040 -4.91893 32971 ft 418 kts 218°
2026-05-07 10:39 44.48375 -4.96655 32971 ft 418 kts 212°
2026-05-07 10:39 44.43444 -5.00978 32972 ft 419 kts 212°
2026-05-07 10:40 44.38497 -5.05277 32966 ft 418 kts 212°
2026-05-07 10:40 44.33578 -5.09552 32958 ft 419 kts 212°
2026-05-07 10:41 44.28644 -5.13851 32953 ft 419 kts 212°
2026-05-07 10:41 44.23701 -5.18147 32954 ft 418 kts 212°
2026-05-07 10:42 44.18760 -5.22425 32954 ft 418 kts 212°
2026-05-07 10:42 44.13856 -5.26662 32950 ft 418 kts 212°
2026-05-07 10:43 44.08915 -5.30931 32952 ft 417 kts 212°
2026-05-07 10:43 44.03967 -5.35197 32949 ft 420 kts 212°
2026-05-07 10:44 43.98992 -5.39470 32937 ft 423 kts 212°
2026-05-07 10:44 43.94012 -5.43746 32947 ft 420 kts 212°
2026-05-07 10:45 43.89026 -5.48014 32939 ft 421 kts 212°
2026-05-07 10:45 43.84081 -5.52239 32940 ft 422 kts 212°
2026-05-07 10:46 43.79132 -5.56458 32935 ft 421 kts 212°
2026-05-07 10:46 43.74121 -5.60723 32927 ft 421 kts 212°
2026-05-07 10:47 43.69124 -5.64959 32910 ft 423 kts 212°
2026-05-07 10:47 43.64095 -5.69208 32922 ft 424 kts 212°
2026-05-07 10:48 43.59055 -5.73471 32928 ft 428 kts 212°
2026-05-07 10:48 43.53970 -5.77791 32930 ft 429 kts 212°
2026-05-07 10:49 43.53646 -5.78065 32929 ft 429 kts 212°